Content
SEND FEEDBACK

Daily
Averages
Monthly
Summary
United States of America

WILMINGTON, NORTH CAROLINA


Home > North America > United States > North Carolina
Elevation: 72 feet     Latitude: 34 16N     Longitude: 077 54W

WEATHER
 
SELECT A DAY
Number of Records: 208,780;   Date Range: 1/1/95 - 7/26/14
 
SHARE

PRINT THIS DATA

[ ← Previous Day ]
WEATHER ALMANAC - APRIL 6, 2013
[ Next Day → ]
[ °C ]   °F
Weather ElementAverageHighLow
Temperature49.3 °F64 °F (11:53 am)39 °F (4:53 am)
Dewpoint39.2 °F45 °F (8:53 am)35.1 °F (11:53 am)
Humidity72.2 %93 % (1:53 am)34 % (11:53 am)
Barometer30.15 in30.29 in (10:53 pm)30.03 in (2:23 am)
Wind Speed5.8 mph16.1 mph (4:53 pm)
Wind Gust23 mph (4:53 pm)
Weather ElementAverage
Visibility8 mi
Wind DirectionNE (40.6 °)

Weather ElementTotal
Precipitation---
Heating Degree Days13.5 (Base 65)
Growing Degree Days1.5 (Base 50)
Averaged from 31 records on April 6, 2013
WEATHER CONDITIONS BREAKOUT
WIND DIRECTION BREAKOUT
WEATHER BY HOUR - APRIL 6, 2013
[ °C ]   °F
Local TimeTemperatureDewpointHumidityBarometerVisibilityWind DirectionWind SpeedGust SpeedPrecipitationEventsConditions
1:53 AM41.0 °F39.0 °F93 %30.04 in9.0 miCalmClear
2:23 AM42.8 °F41.0 °F93 %30.03 in3.0 miCalmPartly Cloudy
2:53 AM41.0 °F39.0 °F93 %30.04 in8.0 miCalmClear
3:09 AM41.0 °F39.2 °F93 %30.04 in7.0 miCalmScattered Clouds
3:18 AM42.8 °F39.2 °F87 %30.04 in8.0 miCalmMostly Cloudy
3:41 AM41.0 °F39.2 °F93 %30.04 in1.5 miCalmOvercast
3:44 AM42.8 °F39.2 °F87 %30.04 in1.0 miCalmMist
3:53 AM41.0 °F39.0 °F93 %30.04 in0.8 miCalmMist
4:04 AM41.0 °F39.2 °F93 %30.05 in1.5 miCalmMostly Cloudy
4:06 AM41.0 °F39.2 °F93 %30.04 in3.0 miCalmMostly Cloudy
4:18 AM41.0 °F39.2 °F93 %30.05 in8.0 miCalmScattered Clouds
4:53 AM39.0 °F37.0 °F93 %30.06 in7.0 miCalmClear
5:53 AM39.0 °F37.0 °F93 %30.08 in9.0 miCalmClear
6:53 AM39.0 °F37.0 °F93 %30.10 in10.0 miCalmClear
7:53 AM43.0 °F41.0 °F93 %30.14 in10.0 miCalmClear
8:53 AM52.0 °F45.0 °F77 %30.17 in10.0 miNNE (30°)13.8 mph21.9 mphClear
9:53 AM57.9 °F39.0 °F49 %30.19 in10.0 miNE (50°)10.4 mphClear
10:53 AM62.1 °F36.0 °F38 %30.21 in10.0 miNE (40°)10.4 mphClear
11:53 AM64.0 °F35.1 °F34 %30.22 in10.0 miENE (60°)8.1 mphClear
12:53 PM64.0 °F37.9 °F38 %30.22 in10.0 miESE (120°)9.2 mphClear
1:53 PM64.0 °F37.9 °F38 %30.22 in10.0 miEast (100°)11.5 mphClear
2:53 PM61.0 °F39.0 °F44 %30.21 in10.0 miESE (110°)12.7 mph20.7 mphClear
3:53 PM60.1 °F42.1 °F51 %30.21 in10.0 miEast (90°)15.0 mph20.7 mphClear
4:53 PM57.9 °F42.1 °F56 %30.20 in10.0 miEast (90°)16.1 mph23.0 mphClear
5:53 PM57.0 °F42.1 °F57 %30.22 in10.0 miEast (90°)16.1 mphClear
6:53 PM55.9 °F39.9 °F55 %30.24 in10.0 miEast (80°)12.7 mph19.6 mphClear
7:53 PM53.1 °F39.0 °F59 %30.25 in10.0 miEast (90°)10.4 mphClear
8:53 PM53.1 °F37.9 °F57 %30.27 in10.0 miEast (100°)11.5 mphClear
9:53 PM52.0 °F39.0 °F61 %30.28 in10.0 miEast (80°)8.1 mphClear
10:53 PM50.0 °F39.0 °F66 %30.29 in10.0 miENE (70°)6.9 mphClear
11:53 PM46.9 °F39.0 °F74 %30.28 in10.0 miENE (60°)5.8 mphClear
Hourly data recorded from KILM, located miles away from Wilmington, North Carolina







STORIES FROM OUR PARTNERS